Home   Weather   Singapore   Past weeks

Flag for Singapore Past Weather in Singapore, Singapore — Yesterday and Last 2 Weeks

Now
82 °F

Sprinkles. Broken clouds.


Feels Like: 89 °F
Forecast: 77 / 89 °F
Wind: 15 mph from Southwest

Location: Singapore / Paya Lebar

Current Time: Oct 1, 2016 at 12:59:29 PM

Latest Report: Oct 1, 2016 at 12:00 PM


Visibility: 4 mi

Pressure: 29.89 "Hg

Humidity: 79%

Dew Point: 75 °F

Location of SingaporeLocation

Past Weather in Singapore — Graph

°F

Singapore Temperature Yesterday

Maximum temperature yesterday: 97 °F (at 3:00 PM)
Minimum temperature yesterday: 81 °F (at 5:00 PM)
Average temperature yesterday: 86 °F

High & Low Weather Summary for the Past Weeks

 TemperatureHumidityPressure
High97 °F (Sep 30, 3:00 PM)94% (Sep 18, 6:00 AM)29.89 "Hg (Sep 18, 6:00 AM)
Low75 °F (Sep 18, 6:00 AM)39% (Sep 29, 1:00 PM)29.65 "Hg (Sep 24, 4:00 PM)
Average86 °F68%29.78 "Hg
* Reported Sep 16 11:00 AM — Oct 1 11:00 AM, Singapore, Weather by CustomWeather, © 2016

Note: Actual official high and low records may vary slightly from our data, if they occured in-between our weather recording intervals... More about our weather records

Advertising

Singapore Weather History for the Previous 24 Hours

Scroll right to see more
 ConditionsComfort  
Time TempWeatherWind HumidityBarometerVisibility
11:00 AM
Sat, Oct 1
88 °FPartly sunny.10 mph62%29.89 "HgN/A
10:00 AM88 °FScattered clouds.3 mph59%29.86 "HgN/A
9:00 AM82 °FPartly sunny.3 mph70%29.83 "HgN/A
8:00 AM81 °FPartly sunny.8 mph74%29.83 "HgN/A
7:00 AM79 °FPartly sunny.3 mph84%29.80 "HgN/A
6:00 AM79 °FPartly cloudy.5 mph84%29.77 "HgN/A
5:00 AM79 °FPartly cloudy.5 mph84%29.77 "HgN/A
11:00 PM
Fri, Sep 30
81 °FPassing clouds.5 mph84%29.83 "HgN/A
10:00 PM82 °FPassing clouds.3 mph79%29.83 "HgN/A
9:00 PM82 °FPassing clouds.3 mph79%29.77 "HgN/A
8:00 PM82 °FPassing clouds.5 mph79%29.77 "HgN/A
7:00 PM81 °FPassing clouds.3 mph84%29.74 "HgN/A
6:00 PM81 °FLight rain. Partly sunny.5 mph79%29.71 "HgN/A
5:00 PM81 °FThunderstorms. Scattered clouds.6 mph74%29.68 "Hg4 mi
4:00 PM95 °FThunderstorms. Broken clouds.10 mph53%29.68 "HgN/A
3:00 PM97 °FPartly sunny.8 mph47%29.71 "HgN/A
2:00 PM95 °FPartly sunny.8 mph50%29.74 "HgN/A
1:00 PM93 °FPartly sunny.8 mph56%29.77 "HgN/A
12:00 PM91 °FPartly sunny.10 mph59%29.80 "HgN/A
Weather by CustomWeather, © 2016

See weather overviewHow to use our weather pages